Regional Weather Roundup
Issued by NWS New Orleans/Baton Rouge, LA

Home | Current Version | Previous Version | Text Only | Print | Product List | Glossary On
Versions: 1 2 3 4 5 6 7 8 9 10 11 12 13 14 15 16 17 18 19 20 21 22 23 24 25 26 27 28 29 30 31 32 33 34 35 36 37 38 39 40 41 42 43 44 45 46 47 48 49 50
045
ASUS44 KLIX 290811
RWRLIX
NEW ORLEANS REGIONAL WEATHER ROUNDUP
NATIONAL WEATHER SERVICE NEW ORLEANS LA
300 AM CDT THU SEP 29 2016

NOTE: "FAIR" INDICATES FEW OR NO CLOUDS BELOW 12,000 FEET WITH NO
      SIGNIFICANT WEATHER AND/OR OBSTRUCTIONS TO VISIBILITY.
      SKY/WX - SKY CONDITION AND SIGNIFICANT WEATHER.
      TMP - AIR TEMPERATURE.     DP    - DEWPOINT TEMPERATURE.
      RH  - RELATIVE HUMIDITY.   PRES  - PRESSURE.
      HI  - HEAT INDEX.          WCI   - WIND CHILL INDEX.

*  THESE STATIONS ARE NOT NWS OR FAA STATIONS AND ARE NOT UNDER
   NWS QUALITY CONTROL.

LAZ038-040-048-061>063-065>067-069-290900-
SOUTHEAST LOUISIANA

CITY           SKY/WX    TMP DP  RH WIND       PRES   REMARKS
N.O. AUDUBON   NOT AVBL
N.O. INTL ARPT PTCLDY    76  70  82 W6        30.00S
N.O. LAKEFRONT CLEAR     81  68  64 NW10      30.00S
N.O. DOWNTOWN*   N/A     78  70  76 CALM      30.01R
RESERVE*         N/A     72  70  94 CALM      30.01S FOG
SLIDELL        CLEAR     69  66  90 CALM      29.99S
BATON ROUGE    PTCLDY    71  68  90 W5        30.00S
BOOTHVILLE     CLEAR     77  74  90 NW3       30.00R
BELLE CHASSE   CLEAR     72  70  93 CALM      30.00R
BOGALUSA*        N/A     65  63  90 CALM      30.00F
GALLIANO*      SUNNY    N/A N/A N/A NW3       30.00S
NEW ROADS*       N/A     64  64  97 MISG      30.01S
GONZALES*        N/A     69  68  96 CALM      30.00S
HAMMOND*       CLEAR     66  63  88 CALM      30.00S
HOUMA*         CLEAR     72  70  95 NW3       30.01S
PORT FOURCHON* SUNNY     81  72  74 NW12      30.00S

$$

MSZ070-080>082-290900-
SOUTHERN MISSISSIPPI

CITY           SKY/WX    TMP DP  RH WIND       PRES   REMARKS
MCCOMB         CLEAR     64  61  90 CALM      30.00F
GULFPORT       CLEAR     70  68  93 CALM      29.98S
BILOXI         NOT AVBL
PASCAGOULA     CLEAR     66  66 100 CALM      29.98S FOG

$$

COASTAL OBSERVATIONS
LAKE AND NEARSHORE STATIONS

STATION/POSITION TIME  TEMP    WIND        PRES    WAVE
                       AIR SEA DIR/SP/G            HT/PER
                 (UTC) (F)     (DEG/KT/KT) (MB)    (FT/S)
PASCAGOULA       0700   76     330/  7/  8 1014.7
WAVELAND YACHT   0700   75 85  300/  4/  5 1015.6
GRAND ISLE       0700   81 87  310/ 12/ 13 1015.8
SOUTHWEST PASS   0700          310/  5/ 12   N/A
NEW CANAL        0700   81 86  290/  4/  8 1015.0
SHELL BEACH      0700   78 87  250/  7/  8 1015.6

OFFSHORE STATIONS

STATION/POSITION TIME  TEMP    WIND        PRES    WAVE
                       AIR SEA DIR/SP/G            HT/PER
                 (UTC) (F)     (DEG/KT/KT) (MB)    (FT/S)
64 S DAUPHIN ISL 0700   83 85  260/ 10/ 12 1014.6

$$





USA.gov is the U.S. government's official web portal to all federal, state and local government web resources and services.